Home > Weather > Jaunpur > Past weeks

Flag for India Weather for the Past 2 Weeks in Jaunpur, Uttar Pradesh, India

Now
77 °F

Scattered clouds.


Feels Like: 78 °F
Forecast: 56 / 80 °F
Wind: 6 mph from East

Location: Lucknow / Amausi

Current Time: Feb 6, 2016 at 2:07:53 PM

Latest Report: Feb 6, 2016 at 1:30 PM


Visibility: 2 mi

Pressure: 29.95 "Hg

Humidity: 42%

Dew point: 52 °F

Location of JaunpurLocation

Historic Weather in Jaunpur — Graph

°F

Jaunpur Temperature Yesterday

Maximum temperature yesterday: 75 °F (at 1:30 PM)
Minimum temperature yesterday: 46 °F (at 5:00 AM)
Average temperature yesterday: 60 °F

High & Low Weather Summary for the Past Weeks

 TemperatureHumidityPressure
High82 °F (Jan 31, 2:00 PM)100% (Jan 23, 2:00 AM)30.18 "Hg (Jan 23, 2:00 AM)
Low37 °F (Jan 23, 5:00 AM)29% (Feb 2, 1:30 PM)29.65 "Hg (Jan 23, 3:00 PM)
Average61 °F67%30.00 "Hg
* Reported Jan 22 12:30 PM — Feb 6 12:30 PM, Jaunpur, Weather by CustomWeather, © 2016

Note: Actual official high and low records may vary slightly from our data, if they occured in-between our weather recording intervals... More about our weather records

Advertising

Jaunpur Weather History for the Previous 24 Hours

 ConditionsComfort  
Time TempWeatherWind HumidityBarometerVisibility
12:30 PM
Sat, Feb 6
75 °FScattered clouds.3 mph41%29.98 "Hg1 mi
12:00 PM73 °FBroken clouds.3 mph47%29.98 "Hg1 mi
11:00 AM72 °FBroken clouds.3 mph47%30.01 "Hg1 mi
10:00 AM66 °FBroken clouds.No wind56%30.01 "Hg1 mi
9:30 AM63 °FFog.No wind64%30.01 "Hg1 mi
8:30 AM52 °FFog.No wind94%29.95 "Hg1 mi
7:30 AM50 °FFog.No wind94%29.95 "Hg1 mi
7:00 AM48 °FFog.No wind94%29.92 "Hg1 mi
6:00 AM48 °FFog.No wind94%29.92 "Hg1 mi
5:30 AM50 °FFog.No wind94%29.89 "Hg0 mi
5:00 AM50 °FFog.No wind94%29.89 "Hg1 mi
4:00 AM52 °FFog.No wind88%29.89 "Hg1 mi
3:00 AM50 °FFog.No wind94%29.89 "Hg1 mi
2:00 AM52 °FFog.No wind88%29.92 "Hg1 mi
1:00 AM52 °FFog.No wind88%29.92 "Hg1 mi
12:00 AM54 °FFog.No wind82%29.92 "Hg1 mi
11:00 PM
Fri, Feb 5
55 °FHaze.No wind77%29.95 "Hg1 mi
10:00 PM55 °FHaze.No wind77%29.95 "Hg1 mi
8:30 PM61 °FHaze.No wind63%29.95 "Hg1 mi
8:00 PM61 °FHaze.No wind63%29.95 "Hg1 mi
7:30 PM63 °FHaze.No wind59%29.95 "Hg1 mi
7:00 PM63 °FHaze.No wind59%29.92 "Hg1 mi
6:30 PM66 °FHaze.2 mph52%29.92 "Hg1 mi
5:30 PM72 °FHaze.3 mph47%29.92 "Hg2 mi
4:30 PM75 °FHaze.7 mph36%29.92 "Hg2 mi
4:00 PM75 °FHaze.3 mph36%29.92 "Hg2 mi
3:00 PM75 °FHaze.7 mph36%29.95 "Hg2 mi
2:30 PM75 °FHaze.6 mph39%29.95 "Hg2 mi
2:00 PM75 °FHaze.5 mph39%29.95 "Hg2 mi
Weather by CustomWeather, © 2016

See weather overviewHow to use our weather pages